,,PA_Meas_PMT16A,,PR_Meas_QMR101_102,,RH_Meas_QMH101,,SR_Meas_QMS101,,TA_Meas_QMH101,,GenWind,,GenWind,
time,status,PA,status,PR,status,RH,status,SR,status,TA,status,DirAvg,status,SpdAvg,
2011-06-16, 00:00:04,VALID,919.093,VALID,0,VALID,93.9967,VALID,0,VALID,19.0983,VALID,87,VALID,0.499609,
2011-06-16, 00:01:04,VALID,919.072,VALID,0,VALID,94.1111,VALID,0,VALID,19.1359,VALID,87,VALID,0.534766,
2011-06-16, 00:02:04,VALID,919.046,VALID,0,VALID,94.3093,VALID,0,VALID,19.1763,VALID,87,VALID,0.625781,
2011-06-16, 00:03:04,VALID,919.022,VALID,0,VALID,94.4846,VALID,0,VALID,19.2543,VALID,87,VALID,0.809375,
2011-06-16, 00:04:04,VALID,918.968,VALID,0,VALID,94.6828,VALID,0,VALID,19.2918,VALID,87,VALID,0.942187,
2011-06-16, 00:05:04,VALID,918.928,VALID,0,VALID,94.7438,VALID,0,VALID,19.3338,VALID,87,VALID,0.852344,
2011-06-16, 00:06:04,VALID,918.914,VALID,0,VALID,94.8734,VALID,0,VALID,19.3518,VALID,109,VALID,1.14375,
2011-06-16, 00:07:04,VALID,918.898,VALID,0,VALID,94.9954,VALID,0,VALID,19.3713,VALID,109,VALID,1.20938,
2011-06-16, 00:08:04,VALID,918.907,VALID,0,VALID,95.0564,VALID,0,VALID,19.3713,VALID,115,VALID,1.33047,
2011-06-16, 00:09:04,VALID,918.925,VALID,0,VALID,95.1555,VALID,0,VALID,19.4103,VALID,115,VALID,1.18945,
2011-06-16, 00:10:04,VALID,918.924,VALID,0,VALID,95.1174,VALID,0,VALID,19.3908,VALID,115,VALID,1.24492,
2011-06-16, 00:11:04,VALID,918.969,VALID,0,VALID,95.1174,VALID,0,VALID,19.3908,VALID,115,VALID,1.06914,
2011-06-16, 00:12:04,VALID,918.913,VALID,0,VALID,94.9344,VALID,0,VALID,19.3908,VALID,115,VALID,0.929688,
2011-06-16, 00:13:04,VALID,918.916,VALID,0,VALID,95.2851,VALID,0,VALID,19.4493,VALID,116,VALID,1.10898,
2011-06-16, 00:14:04,VALID,918.888,VALID,0,VALID,95.3232,VALID,0,VALID,19.4688,VALID,124,VALID,1.26641,
2011-06-16, 00:15:04,VALID,918.893,VALID,0,VALID,95.3232,VALID,0,VALID,19.4883,VALID,124,VALID,1.02148,
2011-06-16, 00:16:04,VALID,918.865,VALID,0,VALID,95.1631,VALID,0,VALID,19.4283,VALID,124,VALID,0.892187,
2011-06-16, 00:17:04,VALID,918.824,VALID,0,VALID,95.003,VALID,0,VALID,19.4103,VALID,124,VALID,0.527344,
2011-06-16, 00:18:04,VALID,918.806,VALID,0,VALID,94.9954,VALID,0,VALID,19.4493,VALID,124,VALID,1.00508,
2011-06-16, 00:19:04,VALID,918.838,VALID,0,VALID,95.0411,VALID,0,VALID,19.4703,VALID,157,VALID,1.39844,
2011-06-16, 00:20:04,VALID,918.819,VALID,0,VALID,95.0106,VALID,0,VALID,19.4508,VALID,163,VALID,0.885156,
2011-06-16, 00:21:04,VALID,918.806,VALID,0,VALID,94.9649,VALID,0,VALID,19.3908,VALID,163,VALID,1.06328,
2011-06-16, 00:22:04,VALID,918.841,VALID,0,VALID,94.9039,VALID,0,VALID,19.3713,VALID,163,VALID,1.25039,
2011-06-16, 00:23:04,VALID,918.822,VALID,0,VALID,94.7133,VALID,0,VALID,19.3323,VALID,163,VALID,0.924609,
2011-06-16, 00:24:04,VALID,918.819,VALID,0,VALID,94.4922,VALID,0,VALID,19.3323,VALID,163,VALID,0.524219,
2011-06-16, 00:25:04,VALID,918.808,VALID,0,VALID,94.2559,VALID,0,VALID,19.3518,VALID,163,VALID,0.531641,
2011-06-16, 00:26:04,VALID,918.803,VALID,0,VALID,94.0348,VALID,0,VALID,19.3518,VALID,163,VALID,1.08906,
2011-06-16, 00:27:04,VALID,918.748,VALID,0,VALID,93.8824,VALID,0,VALID,19.3713,VALID,145,VALID,1.09844,
2011-06-16, 00:28:04,VALID,918.784,VALID,0,VALID,93.7375,VALID,0,VALID,19.3518,VALID,168,VALID,0.994531,
2011-06-16, 00:29:04,VALID,918.752,VALID,0,VALID,93.4478,VALID,0,VALID,19.3518,VALID,148,VALID,0.514063,
2011-06-16, 00:30:04,VALID,918.728,VALID,0,VALID,93.0667,VALID,0,VALID,19.3518,VALID,148,VALID,0.457422,
2011-06-16, 00:31:04,VALID,918.727,VALID,0,VALID,92.4644,VALID,0,VALID,19.3713,VALID,157,VALID,1.09297,
2011-06-16, 00:32:04,VALID,918.708,VALID,0,VALID,92.1061,VALID,0,VALID,19.3908,VALID,159,VALID,0.469141,
2011-06-16, 00:33:04,VALID,918.707,VALID,0,VALID,91.7859,VALID,0,VALID,19.3713,VALID,159,VALID,0.758594,
2011-06-16, 00:34:04,VALID,918.681,VALID,0,VALID,91.8012,VALID,0,VALID,19.3908,VALID,159,VALID,0.896484,
2011-06-16, 00:35:04,VALID,918.671,VALID,0,VALID,92.0756,VALID,0,VALID,19.3908,VALID,159,VALID,0.388281,
2011-06-16, 00:36:04,VALID,918.65,VALID,0,VALID,91.6411,VALID,0,VALID,19.3713,VALID,154,VALID,0.933203,
2011-06-16, 00:37:04,VALID,918.629,VALID,0,VALID,89.9563,VALID,0,VALID,19.3323,VALID,123,VALID,0.617188,
2011-06-16, 00:38:04,VALID,918.6,VALID,0,VALID,89.415,VALID,0,VALID,19.3533,VALID,126,VALID,0.978906,
2011-06-16, 00:39:04,VALID,918.615,VALID,0,VALID,88.7137,VALID,0,VALID,19.2738,VALID,123,VALID,1.0332,
2011-06-16, 00:40:04,VALID,918.599,VALID,0,VALID,88.2792,VALID,0,VALID,19.3128,VALID,123,VALID,1.15391,
2011-06-16, 00:41:04,VALID,918.62,VALID,0,VALID,88.3401,VALID,0,VALID,19.3323,VALID,123,VALID,0.794531,
2011-06-16, 00:42:04,VALID,918.645,VALID,0,VALID,88.3401,VALID,0,VALID,19.3323,VALID,123,VALID,0.692187,
2011-06-16, 00:43:04,VALID,918.619,VALID,0,VALID,88.6603,VALID,0,VALID,19.2933,VALID,123,VALID,0.558203,
2011-06-16, 00:44:04,VALID,918.614,VALID,0,VALID,88.6603,VALID,0,VALID,19.3128,VALID,123,VALID,0.503125,
2011-06-16, 00:45:04,VALID,918.549,VALID,0,VALID,88.7366,VALID,0,VALID,19.2738,VALID,123,VALID,1.06719,
2011-06-16, 00:46:04,VALID,918.502,VALID,0,VALID,88.6298,VALID,0,VALID,19.2543,VALID,123,VALID,1.04961,
2011-06-16, 00:47:04,VALID,918.466,VALID,0,VALID,88.3554,VALID,0,VALID,19.2319,VALID,123,VALID,1.24844,
2011-06-16, 00:48:04,VALID,918.404,VALID,0,VALID,88.4926,VALID,0,VALID,19.2933,VALID,123,VALID,1.23945,
2011-06-16, 00:49:04,VALID,918.343,VALID,0,VALID,88.7899,VALID,0,VALID,19.2738,VALID,123,VALID,1.00156,
2011-06-16, 00:50:04,VALID,918.311,VALID,0,VALID,89.0263,VALID,0,VALID,19.2153,VALID,123,VALID,1.17773,
2011-06-16, 00:51:04,VALID,918.277,VALID,0,VALID,89.2854,VALID,0,VALID,19.1958,VALID,123,VALID,0.81875,
2011-06-16, 00:52:04,VALID,918.257,VALID,0,VALID,89.194,VALID,0,VALID,19.1958,VALID,123,VALID,0.746875,
2011-06-16, 00:53:04,VALID,918.297,VALID,0,VALID,89.3464,VALID,0,VALID,19.1763,VALID,123,VALID,0.703516,
2011-06-16, 00:54:04,VALID,918.255,VALID,0,VALID,89.7886,VALID,0,VALID,19.1178,VALID,123,VALID,0.751953,
2011-06-16, 00:55:04,VALID,918.27,VALID,0,VALID,90.2917,VALID,0,VALID,19.0593,VALID,123,VALID,1.07461,
2011-06-16, 00:56:04,VALID,918.205,VALID,0,VALID,90.9092,VALID,0,VALID,19.0008,VALID,123,VALID,1.14922,
2011-06-16, 00:57:04,VALID,918.195,VALID,0,VALID,91.0846,VALID,0,VALID,18.9619,VALID,123,VALID,1,
2011-06-16, 00:58:04,VALID,918.123,VALID,0,VALID,90.8864,VALID,0,VALID,18.9229,VALID,123,VALID,0.992969,
2011-06-16, 00:59:04,VALID,918.12,VALID,0,VALID,90.6424,VALID,0,VALID,18.9229,VALID,123,VALID,1.11367,
2011-06-16, 01:00:04,VALID,918.084,VALID,0,VALID,90.3375,VALID,0,VALID,18.9424,VALID,123,VALID,1.33203,
2011-06-16, 01:01:04,VALID,918.065,VALID,0,VALID,89.9487,VALID,0,VALID,19.0398,VALID,123,VALID,0.855469,
2011-06-16, 01:02:04,VALID,918.08,VALID,0,VALID,89.5599,VALID,0,VALID,19.0593,VALID,123,VALID,1.075,
2011-06-16, 01:03:04,VALID,918.03,VALID,0,VALID,88.9805,VALID,0,VALID,19.1388,VALID,123,VALID,1.08906,
2011-06-16, 01:04:04,VALID,918.044,VALID,0,VALID,88.5612,VALID,0,VALID,19.1958,VALID,123,VALID,1.00898,
2011-06-16, 01:05:04,VALID,918.032,VALID,0,VALID,88.3783,VALID,0,VALID,19.2348,VALID,123,VALID,1.12188,
2011-06-16, 01:06:04,VALID,918.012,VALID,0,VALID,88.2944,VALID,0,VALID,19.2543,VALID,123,VALID,1.00312,
2011-06-16, 01:07:04,VALID,918.004,VALID,0,VALID,88.1801,VALID,0,VALID,19.2933,VALID,124,VALID,0.7875,
2011-06-16, 01:08:04,VALID,917.995,VALID,0,VALID,88.0505,VALID,0,VALID,19.2933,VALID,124,VALID,0.683984,
2011-06-16, 01:09:04,VALID,917.96,VALID,0,VALID,88.0505,VALID,0,VALID,19.2933,VALID,124,VALID,0.433203,
2011-06-16, 01:10:04,VALID,917.946,VALID,0,VALID,87.8675,VALID,0,VALID,19.3128,VALID,124,VALID,0.472266,
2011-06-16, 01:11:04,VALID,917.929,VALID,0,VALID,87.6617,VALID,0,VALID,19.3533,VALID,124,VALID,0.740625,
2011-06-16, 01:12:04,VALID,917.915,VALID,0,VALID,87.3415,VALID,0,VALID,19.3518,VALID,124,VALID,0.919922,
2011-06-16, 01:13:04,VALID,917.918,VALID,0,VALID,86.1827,VALID,0,VALID,19.4298,VALID,124,VALID,1.15273,
2011-06-16, 01:14:04,VALID,917.89,VALID,0,VALID,85.8854,VALID,0,VALID,19.5468,VALID,124,VALID,1.21523,
2011-06-16, 01:15:04,VALID,917.875,VALID,0,VALID,86.0379,VALID,0,VALID,19.6443,VALID,124,VALID,1.15391,
2011-06-16, 01:16:04,VALID,917.863,VALID,0,VALID,86.4724,VALID,0,VALID,19.6833,VALID,124,VALID,0.733984,
2011-06-16, 01:17:04,VALID,917.883,VALID,0,VALID,86.4267,VALID,0,VALID,19.6248,VALID,140,VALID,0.548047,
2011-06-16, 01:18:04,VALID,917.917,VALID,0,VALID,86.8231,VALID,0,VALID,19.5663,VALID,140,VALID,0.613281,
2011-06-16, 01:19:04,VALID,917.912,VALID,0,VALID,87.3948,VALID,0,VALID,19.4883,VALID,140,VALID,0.614844,
2011-06-16, 01:20:04,VALID,917.898,VALID,0,VALID,88.1267,VALID,0,VALID,19.4103,VALID,140,VALID,0.894141,
2011-06-16, 01:21:04,VALID,917.959,VALID,0,VALID,89.0186,VALID,0,VALID,19.3518,VALID,134,VALID,1.13242,
2011-06-16, 01:22:04,VALID,917.965,VALID,0,VALID,89.5675,VALID,0,VALID,19.2528,VALID,132,VALID,1.29258,
2011-06-16, 01:23:04,VALID,918.006,VALID,0,VALID,90.2917,VALID,0,VALID,19.1763,VALID,114,VALID,1.39141,
2011-06-16, 01:24:04,VALID,918.009,VALID,0,VALID,91.1379,VALID,0,VALID,19.0983,VALID,114,VALID,1.47578,
2011-06-16, 01:25:04,VALID,918.03,VALID,0,VALID,91.4505,VALID,0,VALID,19.0398,VALID,114,VALID,1.19492,
2011-06-16, 01:26:04,VALID,918.038,VALID,0,VALID,91.9536,VALID,0,VALID,18.9814,VALID,127,VALID,1.26094,
2011-06-16, 01:27:04,VALID,918.007,VALID,0,VALID,92.2967,VALID,0,VALID,18.9633,VALID,127,VALID,1.08984,
2011-06-16, 01:28:04,VALID,918.042,VALID,0,VALID,92.2967,VALID,0,VALID,18.9229,VALID,122,VALID,1.28633,
2011-06-16, 01:29:04,VALID,918.059,VALID,0,VALID,92.3577,VALID,0,VALID,18.9019,VALID,133,VALID,0.890234,
2011-06-16, 01:30:04,VALID,917.996,VALID,0,VALID,92.6397,VALID,0.107441,VALID,18.9019,VALID,138,VALID,0.900391,
2011-06-16, 01:31:04,VALID,917.988,VALID,0,VALID,92.594,VALID,0.107441,VALID,18.9019,VALID,136,VALID,1.57383,
2011-06-16, 01:32:04,VALID,918.005,VALID,0,VALID,92.4263,VALID,0,VALID,18.9019,VALID,125,VALID,1.29844,
2011-06-16, 01:33:04,VALID,917.986,VALID,0,VALID,92.3119,VALID,0,VALID,18.9214,VALID,125,VALID,1.25703,
2011-06-16, 01:34:04,VALID,917.988,VALID,0,VALID,92.2967,VALID,0.107441,VALID,18.9214,VALID,125,VALID,0.663281,
2011-06-16, 01:35:04,VALID,917.986,VALID,0,VALID,92.1595,VALID,0,VALID,18.9409,VALID,132,VALID,1.01563,
2011-06-16, 01:36:04,VALID,917.934,VALID,0,VALID,92.1976,VALID,0.107441,VALID,18.9409,VALID,132,VALID,1.04492,
2011-06-16, 01:37:04,VALID,917.934,VALID,0,VALID,92.5102,VALID,0.107441,VALID,18.9409,VALID,132,VALID,0.86875,
2011-06-16, 01:38:04,VALID,917.92,VALID,0,VALID,92.6093,VALID,0.107441,VALID,18.9409,VALID,132,VALID,0.777344,
2011-06-16, 01:39:04,VALID,917.941,VALID,0,VALID,92.3196,VALID,0.107441,VALID,18.9604,VALID,132,VALID,0.878906,
2011-06-16, 01:40:04,VALID,917.916,VALID,0,VALID,91.7097,VALID,0,VALID,18.9604,VALID,132,VALID,0.809375,
2011-06-16, 01:41:04,VALID,917.895,VALID,0,VALID,91.3285,VALID,0.107441,VALID,18.9799,VALID,132,VALID,0.716797,
2011-06-16, 01:42:04,VALID,917.892,VALID,0,VALID,90.7339,VALID,0.107441,VALID,18.9994,VALID,138,VALID,0.849219,
2011-06-16, 01:43:04,VALID,917.9,VALID,0,VALID,90.0097,VALID,0.107441,VALID,19.0579,VALID,138,VALID,1.04961,
2011-06-16, 01:44:04,VALID,917.887,VALID,0,VALID,89.3007,VALID,0,VALID,19.1178,VALID,138,VALID,0.938281,
2011-06-16, 01:45:04,VALID,917.9,VALID,0,VALID,88.7061,VALID,0,VALID,19.1763,VALID,137,VALID,0.858984,
2011-06-16, 01:46:04,VALID,917.871,VALID,0,VALID,88.5155,VALID,0,VALID,19.2543,VALID,138,VALID,0.883984,
2011-06-16, 01:47:04,VALID,917.888,VALID,0,VALID,88.2792,VALID,0,VALID,19.2948,VALID,138,VALID,0.610156,
2011-06-16, 01:48:04,VALID,917.908,VALID,0,VALID,88.4011,VALID,0,VALID,19.2543,VALID,138,VALID,0.744922,
2011-06-16, 01:49:04,VALID,917.932,VALID,0,VALID,88.5688,VALID,0,VALID,19.2738,VALID,125,VALID,0.903516,
2011-06-16, 01:50:04,VALID,917.962,VALID,0,VALID,88.889,VALID,0,VALID,19.2543,VALID,125,VALID,0.927734,
2011-06-16, 01:51:04,VALID,917.962,VALID,0,VALID,88.9043,VALID,0,VALID,19.2348,VALID,125,VALID,0.990625,
2011-06-16, 01:52:04,VALID,918.01,VALID,0,VALID,88.363,VALID,0,VALID,19.2933,VALID,125,VALID,1.14375,
2011-06-16, 01:53:04,VALID,918.004,VALID,0,VALID,88.3249,VALID,0,VALID,19.3518,VALID,113,VALID,1.33203,
2011-06-16, 01:54:04,VALID,918.029,VALID,0,VALID,88.4392,VALID,0,VALID,19.3908,VALID,116,VALID,1.10508,
2011-06-16, 01:55:04,VALID,918.033,VALID,0,VALID,88.6908,VALID,0,VALID,19.3713,VALID,117,VALID,1.15352,
2011-06-16, 01:56:04,VALID,918.077,VALID,0,VALID,89.1254,VALID,0,VALID,19.3128,VALID,117,VALID,1.0043,
2011-06-16, 01:57:04,VALID,918.064,VALID,0,VALID,89.6514,VALID,0,VALID,19.2543,VALID,117,VALID,1.14922,
2011-06-16, 01:58:04,VALID,918.071,VALID,0,VALID,90.0935,VALID,0,VALID,19.1763,VALID,117,VALID,1.06016,
2011-06-16, 01:59:04,VALID,918.097,VALID,0,VALID,90.2536,VALID,0,VALID,19.1373,VALID,117,VALID,1.34375,
2011-06-16, 02:00:04,VALID,918.125,VALID,0,VALID,90.2231,VALID,0,VALID,19.1568,VALID,118,VALID,1.3418,
2011-06-16, 02:01:04,VALID,918.132,VALID,0,VALID,90.1164,VALID,0,VALID,19.1958,VALID,118,VALID,1.475,
2011-06-16, 02:02:04,VALID,918.136,VALID,0,VALID,89.9182,VALID,0,VALID,19.2363,VALID,124,VALID,1.50547,
2011-06-16, 02:03:04,VALID,918.119,VALID,0,VALID,89.7047,VALID,0,VALID,19.2738,VALID,121,VALID,1.62188,
2011-06-16, 02:04:04,VALID,918.123,VALID,0,VALID,89.598,VALID,0,VALID,19.3143,VALID,121,VALID,1.56328,
2011-06-16, 02:05:04,VALID,918.107,VALID,0,VALID,89.3464,VALID,0,VALID,19.2933,VALID,121,VALID,1.58945,
2011-06-16, 02:06:04,VALID,918.08,VALID,0,VALID,89.1177,VALID,0,VALID,19.3728,VALID,121,VALID,1.04297,
2011-06-16, 02:07:04,VALID,918.074,VALID,0,VALID,89.0415,VALID,0,VALID,19.3518,VALID,121,VALID,1.35195,
2011-06-16, 02:08:04,VALID,918.067,VALID,0,VALID,88.7061,VALID,0,VALID,19.3713,VALID,121,VALID,1.44844,
2011-06-16, 02:09:04,VALID,918.047,VALID,0,VALID,88.6527,VALID,0,VALID,19.4103,VALID,121,VALID,1.07187,
2011-06-16, 02:10:04,VALID,918.036,VALID,0,VALID,88.4774,VALID,0,VALID,19.4298,VALID,121,VALID,1.20586,
2011-06-16, 02:11:04,VALID,918.012,VALID,0,VALID,88.4621,VALID,0,VALID,19.4298,VALID,121,VALID,1.36641,
2011-06-16, 02:12:04,VALID,918.014,VALID,0,VALID,87.9285,VALID,0,VALID,19.4883,VALID,121,VALID,1.4832,
2011-06-16, 02:13:04,VALID,917.981,VALID,0,VALID,87.7226,VALID,0,VALID,19.5273,VALID,121,VALID,1.0668,
2011-06-16, 02:14:04,VALID,917.97,VALID,0,VALID,87.5244,VALID,0,VALID,19.5858,VALID,121,VALID,1.00156,
2011-06-16, 02:15:04,VALID,917.942,VALID,0,VALID,87.4101,VALID,0,VALID,19.6248,VALID,121,VALID,1.13945,
2011-06-16, 02:16:04,VALID,917.906,VALID,0,VALID,87.2729,VALID,0,VALID,19.6443,VALID,121,VALID,1.09375,
2011-06-16, 02:17:04,VALID,917.884,VALID,0,VALID,86.8307,VALID,0,VALID,19.7028,VALID,121,VALID,0.907812,
2011-06-16, 02:18:04,VALID,917.826,VALID,0,VALID,86.3123,VALID,0,VALID,19.7613,VALID,121,VALID,1.06289,
2011-06-16, 02:19:04,VALID,917.837,VALID,0,VALID,85.893,VALID,0,VALID,19.8603,VALID,121,VALID,0.926953,
2011-06-16, 02:20:04,VALID,917.828,VALID,0,VALID,85.5957,VALID,0,VALID,19.9173,VALID,121,VALID,0.969922,
2011-06-16, 02:21:04,VALID,917.781,VALID,0,VALID,85.2679,VALID,0,VALID,19.9563,VALID,121,VALID,0.990234,
2011-06-16, 02:22:04,VALID,917.757,VALID,0,VALID,84.8867,VALID,0,VALID,19.9953,VALID,121,VALID,1.11328,
2011-06-16, 02:23:04,VALID,917.74,VALID,0,VALID,84.9935,VALID,0,VALID,20.0343,VALID,121,VALID,0.957812,
2011-06-16, 02:24:04,VALID,917.727,VALID,0,VALID,85.306,VALID,0,VALID,20.0358,VALID,124,VALID,1.02305,
2011-06-16, 02:25:04,VALID,917.729,VALID,0,VALID,85.893,VALID,0,VALID,19.9368,VALID,130,VALID,1.1957,
2011-06-16, 02:26:04,VALID,917.698,VALID,0,VALID,85.9464,VALID,0,VALID,19.8783,VALID,130,VALID,1.11602,
2011-06-16, 02:27:04,VALID,917.701,VALID,0,VALID,85.9007,VALID,0,VALID,19.8993,VALID,130,VALID,1.12109,
2011-06-16, 02:28:04,VALID,917.674,VALID,0,VALID,85.8015,VALID,0,VALID,19.8978,VALID,147,VALID,1.24297,
2011-06-16, 02:29:04,VALID,917.678,VALID,0,VALID,85.8244,VALID,0.107441,VALID,19.8963,VALID,147,VALID,1.36758,
2011-06-16, 02:30:04,VALID,917.636,VALID,0,VALID,86.0379,VALID,0.107441,VALID,19.8183,VALID,147,VALID,1.27031,
2011-06-16, 02:31:04,VALID,917.644,VALID,0,VALID,86.4495,VALID,0.107441,VALID,19.7403,VALID,147,VALID,1.11875,
2011-06-16, 02:32:04,VALID,917.614,VALID,0,VALID,86.9069,VALID,0,VALID,19.6833,VALID,147,VALID,1.10703,
2011-06-16, 02:33:04,VALID,917.609,VALID,0,VALID,87.3339,VALID,0.107441,VALID,19.6038,VALID,147,VALID,1.03359,
2011-06-16, 02:34:04,VALID,917.597,VALID,0,VALID,87.5473,VALID,0.107441,VALID,19.5453,VALID,146,VALID,1.34883,
2011-06-16, 02:35:04,VALID,917.592,VALID,0,VALID,87.7226,VALID,0,VALID,19.5453,VALID,140,VALID,1.06992,
2011-06-16, 02:36:04,VALID,917.538,VALID,0,VALID,88.0123,VALID,0.107441,VALID,19.5258,VALID,122,VALID,1.12969,
2011-06-16, 02:37:04,VALID,917.567,VALID,0,VALID,87.9513,VALID,0.107441,VALID,19.5258,VALID,131,VALID,1.35703,
2011-06-16, 02:38:04,VALID,917.542,VALID,0,VALID,87.8675,VALID,0.107441,VALID,19.5453,VALID,131,VALID,1.18555,
2011-06-16, 02:39:04,VALID,917.564,VALID,0,VALID,87.8522,VALID,0.107441,VALID,19.5648,VALID,131,VALID,1.15625,
2011-06-16, 02:40:04,VALID,917.584,VALID,0,VALID,87.7379,VALID,0.107441,VALID,19.5843,VALID,131,VALID,0.619141,
2011-06-16, 02:41:04,VALID,917.601,VALID,0,VALID,87.6388,VALID,0,VALID,19.5633,VALID,131,VALID,0.735547,
2011-06-16, 02:42:04,VALID,917.572,VALID,0,VALID,87.5092,VALID,0.107441,VALID,19.6233,VALID,131,VALID,0.635156,
2011-06-16, 02:43:04,VALID,917.551,VALID,0,VALID,87.128,VALID,0.107441,VALID,19.6428,VALID,131,VALID,1.09063,
2011-06-16, 02:44:04,VALID,917.521,VALID,0,VALID,87.0061,VALID,0.107441,VALID,19.6428,VALID,131,VALID,1.14414,
2011-06-16, 02:45:04,VALID,917.499,VALID,0,VALID,86.6859,VALID,0.107441,VALID,19.6818,VALID,132,VALID,1.04062,
2011-06-16, 02:46:04,VALID,917.469,VALID,0,VALID,86.3809,VALID,0.107441,VALID,19.7208,VALID,132,VALID,0.901172,
2011-06-16, 02:47:04,VALID,917.47,VALID,0,VALID,86.4953,VALID,0,VALID,19.7598,VALID,132,VALID,0.698047,
2011-06-16, 02:48:04,VALID,917.423,VALID,0,VALID,86.0989,VALID,0.107441,VALID,19.7598,VALID,132,VALID,1.07734,
2011-06-16, 02:49:04,VALID,917.399,VALID,0,VALID,86.2818,VALID,0,VALID,19.7808,VALID,132,VALID,0.867578,
2011-06-16, 02:50:04,VALID,917.389,VALID,0,VALID,86.4724,VALID,0.107441,VALID,19.7193,VALID,132,VALID,0.823047,
2011-06-16, 02:51:04,VALID,917.385,VALID,0,VALID,86.3047,VALID,0.107441,VALID,19.7208,VALID,132,VALID,1.26328,
2011-06-16, 02:52:04,VALID,917.363,VALID,0,VALID,86.6401,VALID,0.107441,VALID,19.7208,VALID,132,VALID,0.598047,
2011-06-16, 02:53:04,VALID,917.377,VALID,0,VALID,86.9451,VALID,0.107441,VALID,19.6428,VALID,132,VALID,0.949609,
2011-06-16, 02:54:04,VALID,917.355,VALID,0,VALID,87.0365,VALID,0,VALID,19.6233,VALID,132,VALID,1.03125,
2011-06-16, 02:55:04,VALID,917.341,VALID,0,VALID,87.0747,VALID,0.107441,VALID,19.6233,VALID,132,VALID,1.15859,
2011-06-16, 02:56:04,VALID,917.356,VALID,0,VALID,86.8764,VALID,0.107441,VALID,19.6428,VALID,132,VALID,1.12031,
2011-06-16, 02:57:04,VALID,917.318,VALID,0,VALID,86.8841,VALID,0.107441,VALID,19.6623,VALID,132,VALID,0.731641,
2011-06-16, 02:58:04,VALID,917.309,VALID,0,VALID,86.8307,VALID,0.107441,VALID,19.6428,VALID,145,VALID,0.980078,
2011-06-16, 02:59:04,VALID,917.294,VALID,0,VALID,87.0365,VALID,0.107441,VALID,19.6038,VALID,150,VALID,0.423828,
2011-06-16, 03:00:04,VALID,917.272,VALID,0,VALID,87.5397,VALID,0.107441,VALID,19.5273,VALID,148,VALID,0.594141,
2011-06-16, 03:01:04,VALID,917.298,VALID,0,VALID,87.9666,VALID,0,VALID,19.4283,VALID,148,VALID,0.95,
2011-06-16, 03:02:04,VALID,917.302,VALID,0,VALID,88.1496,VALID,0.107441,VALID,19.3893,VALID,148,VALID,1.03242,
2011-06-16, 03:03:04,VALID,917.305,VALID,0,VALID,88.3097,VALID,0.107441,VALID,19.3294,VALID,148,VALID,1.19375,
2011-06-16, 03:04:04,VALID,917.325,VALID,0,VALID,88.302,VALID,0.107441,VALID,19.3503,VALID,143,VALID,1.36367,
2011-06-16, 03:05:04,VALID,917.299,VALID,0,VALID,88.3325,VALID,0.107441,VALID,19.3489,VALID,143,VALID,0.821094,
2011-06-16, 03:06:04,VALID,917.316,VALID,0,VALID,88.424,VALID,0.107441,VALID,19.3698,VALID,143,VALID,0.946484,
2011-06-16, 03:07:04,VALID,917.326,VALID,0,VALID,88.5002,VALID,0,VALID,19.3908,VALID,143,VALID,0.716016,
2011-06-16, 03:08:04,VALID,917.314,VALID,0,VALID,88.424,VALID,0,VALID,19.3698,VALID,143,VALID,1.02148,
2011-06-16, 03:09:04,VALID,917.268,VALID,0,VALID,88.3249,VALID,0.107441,VALID,19.4103,VALID,143,VALID,0.838672,
2011-06-16, 03:10:04,VALID,917.278,VALID,0,VALID,88.1953,VALID,0.107441,VALID,19.4283,VALID,143,VALID,1.2332,
2011-06-16, 03:11:04,VALID,917.263,VALID,0,VALID,88.0581,VALID,0,VALID,19.4478,VALID,143,VALID,1.30156,
2011-06-16, 03:12:04,VALID,917.254,VALID,0,VALID,87.9285,VALID,0.107441,VALID,19.4673,VALID,142,VALID,1.13086,
2011-06-16, 03:13:04,VALID,917.233,VALID,0,VALID,87.8446,VALID,0.107441,VALID,19.4868,VALID,139,VALID,0.801953,
2011-06-16, 03:14:04,VALID,917.228,VALID,0,VALID,87.8522,VALID,0.107441,VALID,19.5063,VALID,139,VALID,0.863672,
2011-06-16, 03:15:04,VALID,917.226,VALID,0,VALID,88.0047,VALID,0,VALID,19.4673,VALID,139,VALID,0.560547,
2011-06-16, 03:16:04,VALID,917.194,VALID,0,VALID,87.9742,VALID,0,VALID,19.4298,VALID,139,VALID,0.912109,
2011-06-16, 03:17:04,VALID,917.216,VALID,0,VALID,88.1343,VALID,0.107441,VALID,19.3893,VALID,139,VALID,0.572656,
2011-06-16, 03:18:04,VALID,917.211,VALID,0,VALID,88.0352,VALID,0.107441,VALID,19.3893,VALID,139,VALID,0.833984,
2011-06-16, 03:19:04,VALID,917.218,VALID,0,VALID,88.2105,VALID,0,VALID,19.3503,VALID,139,VALID,0.552734,
2011-06-16, 03:20:04,VALID,917.183,VALID,0,VALID,88.1724,VALID,0,VALID,19.2918,VALID,139,VALID,1.34805,
2011-06-16, 03:21:04,VALID,917.161,VALID,0,VALID,88.2792,VALID,0,VALID,19.2933,VALID,139,VALID,0.701172,
2011-06-16, 03:22:04,VALID,917.146,VALID,0,VALID,88.5307,VALID,0,VALID,19.2933,VALID,139,VALID,0.549609,
2011-06-16, 03:23:04,VALID,917.12,VALID,0,VALID,88.3706,VALID,0,VALID,19.2723,VALID,139,VALID,0.786719,
2011-06-16, 03:24:04,VALID,917.141,VALID,0,VALID,88.3325,VALID,0.107441,VALID,19.3128,VALID,139,VALID,0.575781,
2011-06-16, 03:25:04,VALID,917.152,VALID,0,VALID,88.3554,VALID,0,VALID,19.2918,VALID,139,VALID,0.382031,
2011-06-16, 03:26:04,VALID,917.173,VALID,0,VALID,88.1267,VALID,0,VALID,19.2933,VALID,139,VALID,0.0371094,
2011-06-16, 03:27:04,VALID,917.179,VALID,0,VALID,88.4088,VALID,0,VALID,19.1958,VALID,139,VALID,0.309375,
2011-06-16, 03:28:04,VALID,917.201,VALID,0,VALID,89.072,VALID,0.107441,VALID,19.0969,VALID,139,VALID,0.527344,
2011-06-16, 03:29:04,VALID,917.189,VALID,0,VALID,89.3846,VALID,0,VALID,18.9604,VALID,139,VALID,0.499219,
2011-06-16, 03:30:04,VALID,917.177,VALID,0,VALID,89.8953,VALID,0.107441,VALID,18.9019,VALID,139,VALID,0.383203,
2011-06-16, 03:31:04,VALID,917.171,VALID,0,VALID,90.2231,VALID,0,VALID,18.8644,VALID,139,VALID,0.264453,
2011-06-16, 03:32:04,VALID,917.123,VALID,0,VALID,90.246,VALID,0.107441,VALID,18.8629,VALID,139,VALID,0.276172,
2011-06-16, 03:33:04,VALID,917.127,VALID,0,VALID,90.0554,VALID,0,VALID,18.8434,VALID,139,VALID,0.466016,
2011-06-16, 03:34:04,VALID,917.115,VALID,0,VALID,90.2689,VALID,0.107441,VALID,18.8045,VALID,139,VALID,0.496875,
2011-06-16, 03:35:04,VALID,917.114,VALID,0,VALID,90.5814,VALID,0,VALID,18.746,VALID,139,VALID,0.532812,
2011-06-16, 03:36:04,VALID,917.099,VALID,0,VALID,90.8559,VALID,0.107441,VALID,18.707,VALID,139,VALID,0.443359,
2011-06-16, 03:37:04,VALID,917.08,VALID,0,VALID,90.7263,VALID,0,VALID,18.6485,VALID,139,VALID,0.444141,
2011-06-16, 03:38:04,VALID,917.105,VALID,0,VALID,90.9931,VALID,0.107441,VALID,18.59,VALID,139,VALID,0.278906,
2011-06-16, 03:39:04,VALID,917.114,VALID,0,VALID,91.4276,VALID,0,VALID,18.5316,VALID,139,VALID,0.338281,
2011-06-16, 03:40:04,VALID,917.115,VALID,0,VALID,91.7935,VALID,0,VALID,18.5121,VALID,139,VALID,0.313281,
2011-06-16, 03:41:04,VALID,917.115,VALID,0,VALID,92.0451,VALID,0,VALID,18.5525,VALID,139,VALID,0.405078,